Weather History for Monett, MO

Change the Weather History Date:

Thursday, July 18, 2013

  Actual Average (KJLN) Record (KJLN)
Temperature  
Mean Temperature 81 °F 80 °F  
Max Temperature 93 °F 91 °F 110 °F (1954)
Min Temperature 69 °F 70 °F 54 °F (2009)
Degree Days  
Heating Degree Days 0 0  
Month to date heating degree days 0  
Since 1 June heating degree days 5  
Since 1 July heating degree days 0  
Cooling Degree Days 16 16  
Month to date cooling degree days 267  
Year to date cooling degree days 765  
Since 1 June cooling degree days 585  
Growing Degree Days 31 (Base 50)    
Moisture  
Dew Point 66 °F    
Average Humidity 61    
Maximum Humidity 88    
Minimum Humidity 38    
Precipitation  
Precipitation 0.00 in 0.12 in 1.95 in (1948)
Month to date precipitation 2.42  
Year to date precipitation 26.23  
Sea Level Pressure  
Sea Level Pressure 30.16 in    
Wind  
Wind Speed 3 mph (SSW)    
Max Wind Speed 9 mph    
Max Gust Speed 16 mph    
Visibility 10 miles    
Events      
T = Trace of Precipitation, MM = Missing Value Source: NWS Daily Summary

Daily Weather History Graph

Daily Weather History Graph

Search for Another Location

Airport:

Trip Planner

Search our weather history database for the weather conditions in past years. The results will help you decide how hot, cold, wet, or windy it might be!

Date:

Astronomy

Jul. 18, 2013 Rise Set
Actual Time 6:10 AM CDT 8:33 PM CDT
Civil Twilight 5:41 AM CDT 9:03 PM CDT
Nautical Twilight 5:04 AM CDT 9:39 PM CDT
Astronomical Twilight 4:24 AM CDT 10:19 PM CDT
Moon 4:31 PM CDT (7/18) 2:00 AM CDT (7/18)
Length of Visible Light 15h 22m
Length of Day
14h 22m
Waxing Gibbous, 77% of the Moon is Illuminated
Jul 18
Waxing Gibbous
Jul 22
Full
Jul 29
Last Quarter
Aug 6
New
Aug 14
First Quarter

Hourly Weather History & Observations

Time (CDT) Temp. Heat Index Dew Point Humidity Pressure Visibility Wind Dir Wind Speed Gust Speed Precip Events Conditions
12:15 AM 78.8 °F - 66.2 °F 65% 30.25 in 10.0 mi East 3.5 mph - N/A   Clear
12:35 AM 71.6 °F - 68.0 °F 88% 30.25 in 10.0 mi SSW 3.5 mph - N/A   Clear
12:55 AM 71.6 °F - 68.0 °F 88% 30.25 in 10.0 mi Calm Calm - N/A   Clear
1:15 AM 73.4 °F - 66.2 °F 78% 30.24 in 10.0 mi Calm Calm - N/A   Clear
1:35 AM 73.4 °F - 66.2 °F 78% 30.24 in 10.0 mi Calm Calm - N/A   Clear
1:55 AM 71.6 °F - 66.2 °F 83% 30.23 in 10.0 mi ESE 3.5 mph - N/A   Clear
2:15 AM 71.6 °F - 68.0 °F 88% 30.23 in 10.0 mi Calm Calm - N/A   Clear
2:35 AM 71.6 °F - 66.2 °F 83% 30.23 in 10.0 mi East 3.5 mph - N/A   Clear
2:55 AM 71.6 °F - 66.2 °F 83% 30.22 in 10.0 mi Calm Calm - N/A   Clear
3:15 AM 71.6 °F - 66.2 °F 83% 30.22 in 10.0 mi Calm Calm - N/A   Clear
3:35 AM 71.6 °F - 66.2 °F 83% 30.21 in 10.0 mi Calm Calm - N/A   Clear
3:55 AM 69.8 °F - 64.4 °F 83% 30.21 in 10.0 mi SSE 3.5 mph - N/A   Clear
4:15 AM 69.8 °F - 64.4 °F 83% 30.21 in 10.0 mi Calm Calm - N/A   Clear
4:35 AM 69.8 °F - 66.2 °F 88% 30.21 in 10.0 mi Calm Calm - N/A   Clear
4:55 AM 69.8 °F - 64.4 °F 83% 30.20 in 10.0 mi Calm Calm - N/A   Clear
5:15 AM 69.8 °F - 64.4 °F 83% 30.21 in 10.0 mi SSE 3.5 mph - N/A   Clear
5:35 AM 69.8 °F - 64.4 °F 83% 30.22 in 10.0 mi SSE 4.6 mph - N/A   Clear
5:55 AM 69.8 °F - 64.4 °F 83% 30.22 in 10.0 mi SSE 3.5 mph - N/A   Clear
6:15 AM 69.8 °F - 64.4 °F 83% 30.22 in 10.0 mi Calm Calm - N/A   Clear
6:35 AM 71.6 °F - 64.4 °F 78% 30.22 in 10.0 mi Calm Calm - N/A   Clear
6:55 AM 71.6 °F - 64.4 °F 78% 30.22 in 10.0 mi SE 4.6 mph - N/A   Clear
7:15 AM 71.6 °F - 64.4 °F 78% 30.22 in 10.0 mi SSE 3.5 mph - N/A   Clear
7:35 AM 73.4 °F - 66.2 °F 78% 30.23 in 10.0 mi Calm Calm - N/A   Clear
7:55 AM 77.0 °F - 68.0 °F 74% 30.23 in 10.0 mi South 4.6 mph - N/A   Clear
8:15 AM 78.8 °F - 68.0 °F 69% 30.23 in 10.0 mi South 3.5 mph - N/A   Clear
8:35 AM 80.6 °F 83.2 °F 68.0 °F 65% 30.22 in 10.0 mi SSW 4.6 mph - N/A   Clear
8:55 AM 80.6 °F 83.2 °F 68.0 °F 65% 30.23 in 10.0 mi SSW 4.6 mph - N/A   Clear
9:15 AM 82.4 °F 85.4 °F 68.0 °F 62% 30.23 in 10.0 mi SW 4.6 mph - N/A   Clear
9:35 AM 82.4 °F 85.4 °F 68.0 °F 62% 30.22 in 10.0 mi SW 4.6 mph - N/A   Clear
9:55 AM 86.0 °F 89.4 °F 68.0 °F 55% 30.22 in 10.0 mi SW 3.5 mph - N/A   Clear
10:15 AM 86.0 °F 88.2 °F 66.2 °F 51% 30.22 in 10.0 mi West 5.8 mph - N/A   Clear
10:35 AM 86.0 °F 87.3 °F 64.4 °F 48% 30.21 in 10.0 mi West 3.5 mph - N/A   Clear
10:55 AM 87.8 °F 89.4 °F 64.4 °F 46% 30.21 in 10.0 mi Calm Calm - N/A   Clear
11:15 AM 89.6 °F 91.1 °F 64.4 °F 43% 30.21 in 10.0 mi WSW 5.8 mph - N/A   Clear
11:35 AM 89.6 °F 91.1 °F 64.4 °F 43% 30.20 in 10.0 mi SSW 3.5 mph - N/A   Clear
11:55 AM 87.8 °F 89.4 °F 64.4 °F 46% 30.20 in 10.0 mi Calm Calm - N/A   Scattered Clouds
12:15 PM 91.4 °F 93.2 °F 64.4 °F 41% 30.19 in 10.0 mi West 6.9 mph - N/A   Scattered Clouds
12:35 PM 87.8 °F 89.4 °F 64.4 °F 46% 30.19 in 10.0 mi West 3.5 mph - N/A   Mostly Cloudy
12:55 PM 91.4 °F 93.2 °F 64.4 °F 41% 30.18 in 10.0 mi SSW 4.6 mph - N/A   Mostly Cloudy
1:15 PM 91.4 °F 93.2 °F 64.4 °F 41% 30.17 in 10.0 mi SW 6.9 mph 16.1 mph N/A   Scattered Clouds
1:35 PM 91.4 °F 93.2 °F 64.4 °F 41% 30.16 in 10.0 mi West 5.8 mph - N/A   Scattered Clouds
1:55 PM 91.4 °F 93.2 °F 64.4 °F 41% 30.15 in 10.0 mi WSW 6.9 mph - N/A   Mostly Cloudy
2:15 PM 91.4 °F 93.2 °F 64.4 °F 41% 30.14 in 10.0 mi West 6.9 mph - N/A   Scattered Clouds
2:35 PM 91.4 °F 93.2 °F 64.4 °F 41% 30.13 in 10.0 mi South 4.6 mph - N/A   Clear
2:55 PM 93.2 °F 94.9 °F 64.4 °F 38% 30.12 in 10.0 mi West 9.2 mph - N/A   Scattered Clouds
3:15 PM 91.4 °F 93.2 °F 64.4 °F 41% 30.11 in 10.0 mi SSW 8.1 mph - N/A   Mostly Cloudy
3:35 PM 91.4 °F 93.2 °F 64.4 °F 41% 30.10 in 10.0 mi SW 9.2 mph - N/A   Mostly Cloudy
3:55 PM 91.4 °F 93.2 °F 64.4 °F 41% 30.09 in 10.0 mi West 4.6 mph - N/A   Mostly Cloudy
4:15 PM 91.4 °F 93.2 °F 64.4 °F 41% 30.09 in 10.0 mi WSW 3.5 mph - N/A   Overcast
5:15 PM 93.2 °F 94.9 °F 64.4 °F 38% 30.08 in 10.0 mi West 6.9 mph - N/A   Mostly Cloudy
5:35 PM 91.4 °F 93.2 °F 64.4 °F 41% 30.07 in 10.0 mi North 4.6 mph - N/A   Scattered Clouds
5:55 PM 91.4 °F 93.2 °F 64.4 °F 41% 30.07 in 10.0 mi NNW 4.6 mph - N/A   Mostly Cloudy
6:15 PM 91.4 °F 93.2 °F 64.4 °F 41% 30.06 in 10.0 mi NW 6.9 mph - N/A   Overcast
6:35 PM 91.4 °F 93.2 °F 64.4 °F 41% 30.06 in 10.0 mi Calm Calm - N/A   Mostly Cloudy
6:55 PM 91.4 °F 93.2 °F 64.4 °F 41% 30.06 in 10.0 mi WNW 5.8 mph - N/A   Clear
7:15 PM 91.4 °F 93.2 °F 64.4 °F 41% 30.06 in 10.0 mi WNW 4.6 mph - N/A   Scattered Clouds
7:35 PM 89.6 °F 91.1 °F 64.4 °F 43% 30.06 in 10.0 mi WNW 3.5 mph - N/A   Clear
7:55 PM 89.6 °F 92.2 °F 66.2 °F 46% 30.06 in 10.0 mi Calm Calm - N/A   Scattered Clouds
8:15 PM 87.8 °F 90.4 °F 66.2 °F 49% 30.06 in 10.0 mi Calm Calm - N/A   Clear
8:35 PM 84.2 °F 87.3 °F 68.0 °F 58% 30.06 in 10.0 mi Calm Calm - N/A   Clear
8:55 PM 82.4 °F 85.4 °F 68.0 °F 62% 30.07 in 10.0 mi Calm Calm - N/A   Clear
9:15 PM 82.4 °F 85.4 °F 68.0 °F 62% 30.07 in 10.0 mi Calm Calm - N/A   Clear
9:35 PM 80.6 °F 83.9 °F 69.8 °F 70% 30.07 in 10.0 mi SSE 5.8 mph - N/A   Clear
9:55 PM 78.8 °F - 68.0 °F 69% 30.07 in 10.0 mi SSE 3.5 mph - N/A   Clear
10:15 PM 78.8 °F - 68.0 °F 69% 30.07 in 10.0 mi Calm Calm - N/A   Clear
10:35 PM 78.8 °F - 68.0 °F 69% 30.07 in 10.0 mi Calm Calm - N/A   Clear
10:55 PM 78.8 °F - 66.2 °F 65% 30.07 in 10.0 mi Calm Calm - N/A   Clear
11:15 PM 77.0 °F - 68.0 °F 74% 30.07 in 10.0 mi ESE 6.9 mph - N/A   Clear
11:35 PM 77.0 °F - 66.2 °F 69% 30.07 in 10.0 mi SE 5.8 mph - N/A   Clear
11:55 PM 77.0 °F - 64.4 °F 65% 30.07 in 10.0 mi SSE 5.8 mph - N/A   Clear